Location: Allie Creek
(37.5926°N, 89.8526°W)
Time: 17:40:25
(UTC+00:00)

USA 81 - Pass Details

Date: 30 April 2024
Orbit: 784 x 786 km, 85.0° (Epoch: 28 May)

Event Time Altitude Azimuth Distance (km) Brightness Sun altitude
Exits shadow 02:33:39 12° 188° (S) 2,189 6.1 -19.1°
Maximum altitude 02:38:31 79° 274° (W) 806 4.1 -19.9°
Drops below altitude 10° 02:43:48 10° 1° (N) 2,352 7.0 -20.7°
Sets 02:46:10 0° 3° (N) 3,284 7.8 -21.1°
